Location: Dallas
(32.7833°N, 96.8000°W)
Time: 00:32:43
(UTC-05:00)

OTV 5 (USA 277) - Visible Passes

Search period start: 21 October 2019 00:00
Search period end: 31 October 2019 00:00
Orbit: 310 x 324 km, 54.5° (Epoch: 17 October)

Date Brightness Start Highest point End Pass type
(mag) Time Alt. Az. Time Alt. Az. Time Alt. Az.
21 Oct ? 06:23:30 27° NNW 06:24:41 54° NE 06:27:22 10° SE visible
22 Oct ? 06:38:25 28° W 06:39:11 34° SW 06:41:41 10° SSE visible
23 Oct ? 06:53:28 10° WSW 06:53:31 10° WSW 06:54:00 10° SW visible
25 Oct ? 20:28:10 10° SW 20:29:01 18° SW 20:29:01 18° SW visible
26 Oct ? 19:09:54 10° SSE 19:11:22 14° SE 19:12:49 10° E visible
26 Oct ? 20:43:15 10° W 20:43:54 14° W 20:43:54 14° W visible
27 Oct ? 19:23:07 10° SSW 19:25:44 47° SE 19:27:43 16° ENE visible
28 Oct ? 19:37:41 10° WSW 19:40:15 39° NW 19:42:19 14° NNE visible
29 Oct ? 19:53:23 10° WNW 19:54:57 14° NW 19:56:31 10° N visible
